Погода в Учалах

Россия / Республика Башкортостан     54°19′09″N   59°22′43″E
темп.,
°C
ветер,
м/с
пор.,
м/с
влажн.,
%
обл.,
%
осадки,
мм/ч
давл.,
гПа
погр.,
м
20 апреля, вт
вт2023:00−3в38510 0.0 1034320
02:00−3св11500 0.0 103430
05:00−4с11500 0.0 103516
08:00−2ссв22390 0.0 1036396
11:00+2всв22300 0.0 10351120
14:00+4св01285 0.0 10331229
17:00+6з12270 0.0 10321227
20:00+4ююз22390 0.0 103114
21 апреля, ср
ср2123:00+2зсз11460 0.0 103310
02:00+1зсз11510 0.0 103310
05:000зсз11530 0.0 103310
08:00+3з22460 0.0 1034174
11:00+7юз21357 0.0 1033826
14:00+10ююз22319 0.0 10321303
17:00+11ююв233116 0.0 10311320
20:00+8ю224297 0.0 103223
22 апреля, чт
чт2223:00+6ююз3348100 0.0 103332
02:00+4ююз335776 0.0 103331
05:00+2ю2264100 0.0 103524
08:00+5ю3956100 0.0 1035380
11:00+7ююз6944100 0.0 1035801
14:00+8ююз6839100 0.0 10341206
17:00+9ю683975 0.0 10331272
20:00+8ю4949100 0.0 1033259
23 апреля, пт
пт2323:00+6ю3559100 0.0 1033118
02:00+5ююз2264100 0.0 103233
05:00+4ю2780100 0.2 1033267
08:00+5ю4885100 0.3 1032664
11:00+7ююз686987 0.3 1031979
14:00+11ююз5851100 0.1 10291959
17:00+11ю4756100 0.3 10281347
20:00+9ююв3563100 0.0 1027120
24 апреля, сб
сб2423:00+8ююз7969100 0.0 1027754
02:00+5ю4890100 1.0 1027813
05:00+5ююв4886100 2.3 1025718
08:00+6юв5880100 0.3 1023804
11:00+4юв5995100 1.8 1022645
14:00+10юв6848100 0.7 10181671
17:00+10юв6945100 0.7 10161705
20:00+8в7125791 0.1 1015456